Location: Innsbruck
(47.2657°N, 11.3914°E)
Time: 10:09:33
(UTC+01:00)

CAS-4A - Visible Passes

Search period start: 07 December 2021 00:00
Search period end: 17 December 2021 00:00
Orbit: 529 x 539 km, 43.0° (Epoch: 06 December)

Date Brightness Start Highest point End Pass type
(mag) Time Alt. Az. Time Alt. Az. Time Alt. Az.
07 Dec ? 18:35:49 10° S 18:37:31 15° SSE 18:37:31 15° SSE visible
08 Dec ? 18:24:09 10° SSW 18:27:00 18° SSE 18:27:03 18° SSE visible
09 Dec ? 18:12:37 10° SSW 18:15:45 21° SSE 18:16:32 20° SE visible
09 Dec ? 19:51:24 10° WSW 19:51:50 13° WSW 19:51:50 13° WSW visible
10 Dec ? 18:01:09 10° SSW 18:04:29 24° SSE 18:05:58 20° SE visible
10 Dec ? 19:40:10 10° WSW 19:41:16 17° WSW 19:41:16 17° WSW visible
11 Dec ? 17:49:44 10° SW 17:53:15 27° SSE 17:55:23 18° ESE visible
11 Dec ? 19:28:57 10° WSW 19:30:41 23° WSW 19:30:41 23° WSW visible
12 Dec ? 17:38:22 10° SW 17:42:00 31° SSE 17:44:47 15° ESE visible
12 Dec ? 19:17:45 10° WSW 19:20:04 30° SW 19:20:04 30° SW visible
13 Dec ? 17:27:03 10° SW 17:30:47 34° SSE 17:34:10 12° E visible
13 Dec ? 19:06:33 10° WSW 19:09:28 37° SW 19:09:28 37° SW visible
14 Dec ? 17:15:44 10° SW 17:19:33 37° SSE 17:23:21 10° E visible
14 Dec ? 18:55:21 10° WSW 18:58:52 44° SSW 18:58:52 44° SSW visible
15 Dec ? 17:04:28 10° WSW 17:08:19 40° S 17:12:11 10° E visible
15 Dec ? 18:44:09 10° W 18:48:04 44° S 18:48:18 43° S visible
16 Dec ? 18:32:58 10° W 18:36:51 42° S 18:37:46 36° SSE visible
